Time,TemperatureF,DewpointF,PressureIn,WindDirection,WindDirectionDegrees,WindSpeedMPH,WindSpeedGustMPH,Humidity,HourlyPrecipIn,Conditions,Clouds,dailyrainin,SoftwareType,DateUTC
2014-03-13 00:03:00,43.0,39.0,30.29,NNW,347,1.0,-999.0,85,-99.99,,,0.01,weatherlink.com 1.10,2014-03-12 22:03:00,
2014-03-13 00:18:00,42.5,39.0,30.28,NNW,346,3.0,-999.0,86,-99.99,,,0.01,weatherlink.com 1.10,2014-03-12 22:18:00,
2014-03-13 00:33:00,42.1,38.0,30.28,North,355,5.0,-999.0,86,-99.99,,,0.01,weatherlink.com 1.10,2014-03-12 22:33:00,
2014-03-13 00:48:00,42.4,38.0,30.28,North,355,6.0,-999.0,85,-99.99,,,0.01,weatherlink.com 1.10,2014-03-12 22:48:00,
2014-03-13 01:03:00,42.9,38.0,30.28,North,360,6.0,-999.0,83,-99.99,,,0.01,weatherlink.com 1.10,2014-03-12 23:03:00,
2014-03-13 01:18:00,43.2,37.0,30.28,NNW,335,3.0,-999.0,80,-99.99,,,0.01,weatherlink.com 1.10,2014-03-12 23:18:00,
2014-03-13 01:33:00,42.9,37.0,30.29,North,360,4.0,-999.0,80,-99.99,,,0.01,weatherlink.com 1.10,2014-03-12 23:33:00,
2014-03-13 01:48:00,42.6,37.0,30.29,NNW,345,6.0,-999.0,79,-99.99,,,0.01,weatherlink.com 1.10,2014-03-12 23:48:00,
2014-03-13 02:03:00,42.1,36.0,30.29,North,11,5.0,-999.0,80,-99.99,,,0.01,weatherlink.com 1.10,2014-03-13 00:03:00,
2014-03-13 02:18:00,41.9,36.0,30.29,North,360,6.0,-999.0,79,-99.99,,,0.00,weatherlink.com 1.10,2014-03-13 00:18:00,
2014-03-13 02:33:00,41.7,36.0,30.29,North,5,6.0,-999.0,79,-99.99,,,0.00,weatherlink.com 1.10,2014-03-13 00:33:00,
2014-03-13 02:48:00,41.7,36.0,30.29,North,355,5.0,-999.0,79,-99.99,,,0.00,weatherlink.com 1.10,2014-03-13 00:48:00,
2014-03-13 03:03:00,41.7,35.0,30.29,NNW,348,3.0,-999.0,78,-99.99,,,0.00,weatherlink.com 1.10,2014-03-13 01:03:00,
2014-03-13 03:18:00,41.5,35.0,30.28,North,355,6.0,-999.0,78,-99.99,,,0.00,weatherlink.com 1.10,2014-03-13 01:18:00,
2014-03-13 03:33:00,41.7,35.0,30.29,North,355,3.0,-999.0,77,-99.99,,,0.00,weatherlink.com 1.10,2014-03-13 01:33:00,
2014-03-13 03:48:00,41.3,35.0,30.29,North,360,5.0,-999.0,77,-99.99,,,0.00,weatherlink.com 1.10,2014-03-13 01:48:00,
2014-03-13 04:03:00,41.3,35.0,30.29,North,355,3.0,-999.0,77,-99.99,,,0.00,weatherlink.com 1.10,2014-03-13 02:03:00,
2014-03-13 04:18:00,41.6,34.0,30.29,North,360,8.0,-999.0,75,-99.99,,,0.00,weatherlink.com 1.10,2014-03-13 02:18:00,
2014-03-13 04:33:00,41.7,34.0,30.29,North,360,6.0,-999.0,74,-99.99,,,0.00,weatherlink.com 1.10,2014-03-13 02:33:00,
2014-03-13 04:48:00,41.5,34.0,30.30,North,355,2.0,-999.0,74,-99.99,,,0.00,weatherlink.com 1.10,2014-03-13 02:48:00,
2014-03-13 05:03:00,41.4,34.0,30.30,NNW,348,6.0,-999.0,74,-99.99,,,0.00,weatherlink.com 1.10,2014-03-13 03:03:00,
2014-03-13 05:18:00,41.2,34.0,30.30,North,350,7.0,-999.0,75,-99.99,,,0.00,weatherlink.com 1.10,2014-03-13 03:18:00,
2014-03-13 05:33:00,40.8,34.0,30.30,North,349,5.0,-999.0,76,-99.99,,,0.00,weatherlink.com 1.10,2014-03-13 03:33:00,
2014-03-13 05:49:00,40.3,34.0,30.30,North,355,7.0,-999.0,78,-99.99,,,0.00,weatherlink.com 1.10,2014-03-13 03:49:00,
2014-03-13 06:04:00,40.0,34.0,30.30,North,355,4.0,-999.0,80,-99.99,,,0.00,weatherlink.com 1.10,2014-03-13 04:04:00,
2014-03-13 06:19:00,39.8,35.0,30.30,North,351,6.0,-999.0,82,-99.99,,,0.00,weatherlink.com 1.10,2014-03-13 04:19:00,
2014-03-13 06:34:00,39.8,35.0,30.31,North,355,5.0,-999.0,83,-99.99,,,0.00,weatherlink.com 1.10,2014-03-13 04:34:00,
2014-03-13 06:49:00,39.9,36.0,30.32,NNW,331,6.0,-999.0,84,-99.99,,,0.00,weatherlink.com 1.10,2014-03-13 04:49:00,
2014-03-13 07:04:00,40.1,36.0,30.32,NNW,348,6.0,-999.0,86,-99.99,,,0.00,weatherlink.com 1.10,2014-03-13 05:04:00,
2014-03-13 07:19:00,40.7,37.0,30.33,North,355,8.0,-999.0,86,-99.99,,,0.00,weatherlink.com 1.10,2014-03-13 05:19:00,
2014-03-13 07:34:00,41.2,37.0,30.33,NW,313,7.0,-999.0,86,-99.99,,,0.00,weatherlink.com 1.10,2014-03-13 05:34:00,
2014-03-13 07:49:00,41.6,38.0,30.34,NW,317,5.0,-999.0,87,-99.99,,,0.00,weatherlink.com 1.10,2014-03-13 05:49:00,
2014-03-13 08:04:00,42.2,39.0,30.34,WNW,300,4.0,-999.0,88,-99.99,,,0.00,weatherlink.com 1.10,2014-03-13 06:04:00,
2014-03-13 08:19:00,42.4,39.0,30.34,NNW,327,5.0,-999.0,89,-99.99,,,0.00,weatherlink.com 1.10,2014-03-13 06:19:00,
2014-03-13 10:04:00,48.9,41.0,30.35,NW,325,8.0,-999.0,73,-99.99,,,0.00,weatherlink.com 1.10,2014-03-13 08:04:00,
2014-03-13 10:19:00,47.9,40.0,30.35,North,5,18.0,-999.0,75,-99.99,,,0.00,weatherlink.com 1.10,2014-03-13 08:19:00,
2014-03-13 10:34:00,47.3,40.0,30.35,North,5,14.0,-999.0,76,-99.99,,,0.00,weatherlink.com 1.10,2014-03-13 08:34:00,
2014-03-13 10:49:00,48.2,39.0,30.35,NNW,343,9.0,-999.0,70,-99.99,,,0.00,weatherlink.com 1.10,2014-03-13 08:49:00,
2014-03-13 11:04:00,47.6,40.0,30.36,NNW,338,15.0,-999.0,74,-99.99,,,0.00,weatherlink.com 1.10,2014-03-13 09:04:00,
2014-03-13 11:19:00,47.8,38.0,30.36,North,9,10.0,-999.0,69,-99.99,,,0.00,weatherlink.com 1.10,2014-03-13 09:19:00,
2014-03-13 11:34:00,47.3,37.0,30.36,NNE,23,4.0,-999.0,68,-99.99,,,0.00,weatherlink.com 1.10,2014-03-13 09:34:00,
2014-03-13 11:49:00,48.1,38.0,30.36,North,355,10.0,-999.0,69,-99.99,,,0.00,weatherlink.com 1.10,2014-03-13 09:49:00,
2014-03-13 12:04:00,48.1,38.0,30.36,North,5,12.0,-999.0,69,-99.99,,,0.00,weatherlink.com 1.10,2014-03-13 10:04:00,
2014-03-13 12:19:00,48.0,39.0,30.36,NNE,28,6.0,-999.0,70,-99.99,,,0.00,weatherlink.com 1.10,2014-03-13 10:19:00,
2014-03-13 12:34:00,47.6,39.0,30.36,North,355,17.0,-999.0,71,-99.99,,,0.00,weatherlink.com 1.10,2014-03-13 10:34:00,
2014-03-13 12:49:00,48.4,39.0,30.36,North,350,17.0,-999.0,70,-99.99,,,0.00,weatherlink.com 1.10,2014-03-13 10:49:00,
2014-03-13 13:04:00,47.6,38.0,30.36,North,5,16.0,-999.0,70,-99.99,,,0.00,weatherlink.com 1.10,2014-03-13 11:04:00,
2014-03-13 13:19:00,47.6,38.0,30.36,NNW,330,11.0,-999.0,69,-99.99,,,0.00,weatherlink.com 1.10,2014-03-13 11:19:00,
2014-03-13 13:34:00,48.0,38.0,30.36,NNE,17,7.0,-999.0,68,-99.99,,,0.00,weatherlink.com 1.10,2014-03-13 11:34:00,
2014-03-13 13:49:00,48.7,38.0,30.36,North,360,13.0,-999.0,67,-99.99,,,0.00,weatherlink.com 1.10,2014-03-13 11:49:00,
2014-03-13 14:04:00,48.3,39.0,30.35,NNW,343,9.0,-999.0,69,-99.99,,,0.00,weatherlink.com 1.10,2014-03-13 12:04:00,
2014-03-13 14:19:00,48.3,39.0,30.35,North,5,8.0,-999.0,70,-99.99,,,0.00,weatherlink.com 1.10,2014-03-13 12:19:00,
2014-03-13 14:34:00,48.5,38.0,30.35,North,360,13.0,-999.0,66,-99.99,,,0.00,weatherlink.com 1.10,2014-03-13 12:34:00,
2014-03-13 14:49:00,48.7,35.0,30.36,NE,34,10.0,-999.0,60,-99.99,,,0.00,weatherlink.com 1.10,2014-03-13 12:49:00,
2014-03-13 15:05:00,48.7,34.0,30.36,North,360,7.0,-999.0,58,-99.99,,,0.00,weatherlink.com 1.10,2014-03-13 13:05:00,
2014-03-13 15:20:00,48.4,34.0,30.36,North,5,14.0,-999.0,58,-99.99,,,0.00,weatherlink.com 1.10,2014-03-13 13:20:00,
2014-03-13 15:35:00,47.6,34.0,30.36,North,355,15.0,-999.0,60,-99.99,,,0.00,weatherlink.com 1.10,2014-03-13 13:35:00,
2014-03-13 15:50:00,47.9,36.0,30.36,North,5,12.0,-999.0,63,-99.99,,,0.00,weatherlink.com 1.10,2014-03-13 13:50:00,
2014-03-13 16:05:00,47.8,35.0,30.36,NNW,345,14.0,-999.0,62,-99.99,,,0.00,weatherlink.com 1.10,2014-03-13 14:05:00,
2014-03-13 16:20:00,48.2,37.0,30.35,North,360,8.0,-999.0,66,-99.99,,,0.00,weatherlink.com 1.10,2014-03-13 14:20:00,
2014-03-13 16:35:00,47.6,37.0,30.35,North,5,9.0,-999.0,68,-99.99,,,0.00,weatherlink.com 1.10,2014-03-13 14:35:00,
2014-03-13 16:50:00,47.4,39.0,30.35,North,355,10.0,-999.0,72,-99.99,,,0.00,weatherlink.com 1.10,2014-03-13 14:50:00,
2014-03-13 17:20:00,46.5,39.0,30.35,North,5,5.0,-999.0,74,-99.99,,,0.00,weatherlink.com 1.10,2014-03-13 15:20:00,
2014-03-13 17:35:00,46.4,39.0,30.35,NNE,13,2.0,-999.0,74,-99.99,,,0.00,weatherlink.com 1.10,2014-03-13 15:35:00,
2014-03-13 18:20:00,45.2,38.0,30.36,NNE,26,4.0,-999.0,77,-99.99,,,0.00,weatherlink.com 1.10,2014-03-13 16:20:00,
2014-03-13 18:35:00,45.1,39.0,30.36,NNE,31,2.0,-999.0,78,-99.99,,,0.00,weatherlink.com 1.10,2014-03-13 16:35:00,
2014-03-13 19:05:00,44.2,39.0,30.36,NNE,31,0.0,-999.0,81,-99.99,,,0.00,weatherlink.com 1.10,2014-03-13 17:05:00,
2014-03-13 19:20:00,44.1,39.0,30.37,NNE,31,2.0,-999.0,82,-99.99,,,0.00,weatherlink.com 1.10,2014-03-13 17:20:00,
2014-03-13 19:35:00,43.8,39.0,30.37,NNE,31,2.0,-999.0,83,-99.99,,,0.00,weatherlink.com 1.10,2014-03-13 17:35:00,
2014-03-13 19:50:00,43.8,39.0,30.36,NNE,31,4.0,-999.0,84,-99.99,,,0.00,weatherlink.com 1.10,2014-03-13 17:50:00,
2014-03-13 20:05:00,44.1,40.0,30.36,NNE,31,3.0,-999.0,84,-99.99,,,0.00,weatherlink.com 1.10,2014-03-13 18:05:00,
2014-03-13 20:20:00,44.2,40.0,30.36,NE,54,7.0,-999.0,84,-99.99,,,0.00,weatherlink.com 1.10,2014-03-13 18:20:00,
2014-03-13 20:35:00,44.2,40.0,30.36,NE,56,4.0,-999.0,84,-99.99,,,0.00,weatherlink.com 1.10,2014-03-13 18:35:00,
2014-03-13 20:50:00,44.1,40.0,30.36,NE,50,3.0,-999.0,84,-99.99,,,0.00,weatherlink.com 1.10,2014-03-13 18:50:00,
2014-03-13 21:05:00,43.9,39.0,30.36,NE,50,3.0,-999.0,84,-99.99,,,0.00,weatherlink.com 1.10,2014-03-13 19:05:00,
2014-03-13 21:20:00,44.0,40.0,30.36,NE,50,1.0,-999.0,84,-99.99,,,0.00,weatherlink.com 1.10,2014-03-13 19:20:00,
2014-03-13 21:35:00,43.8,40.0,30.37,NE,50,0.0,-999.0,85,-99.99,,,0.00,weatherlink.com 1.10,2014-03-13 19:35:00,
2014-03-13 21:50:00,43.3,39.0,30.37,NE,50,0.0,-999.0,85,-99.99,,,0.00,weatherlink.com 1.10,2014-03-13 19:50:00,
2014-03-13 22:05:00,43.0,39.0,30.37,NE,49,3.0,-999.0,86,-99.99,,,0.00,weatherlink.com 1.10,2014-03-13 20:05:00,
2014-03-13 22:20:00,41.7,38.0,30.37,NE,49,2.0,-999.0,87,-99.99,,,0.00,weatherlink.com 1.10,2014-03-13 20:20:00,
2014-03-13 22:35:00,41.7,39.0,30.38,NE,49,0.0,-999.0,89,-99.99,,,0.00,weatherlink.com 1.10,2014-03-13 20:35:00,
2014-03-13 22:50:00,42.2,39.0,30.37,NE,49,0.0,-999.0,89,-99.99,,,0.00,weatherlink.com 1.10,2014-03-13 20:50:00,
2014-03-13 23:05:00,42.1,39.0,30.37,NE,49,0.0,-999.0,88,-99.99,,,0.00,weatherlink.com 1.10,2014-03-13 21:05:00,
2014-03-13 23:20:00,41.0,38.0,30.38,NE,49,2.0,-999.0,89,-99.99,,,0.00,weatherlink.com 1.10,2014-03-13 21:20:00,
2014-03-13 23:35:00,41.2,39.0,30.37,NE,49,0.0,-999.0,90,-99.99,,,0.00,weatherlink.com 1.10,2014-03-13 21:35:00,
2014-03-13 23:50:00,41.5,39.0,30.37,NE,49,0.0,-999.0,89,-99.99,,,0.00,weatherlink.com 1.10,2014-03-13 21:50:00,